カタログに戻る

COSMOS 1249 COOLANT

運用中LEO
NORAD 26506·DEBRIS·🇷🇺 Russia

打ち上げ Mar 5, 1981 から Baikonur Cosmodrome

Loading…

次のパス (今後24時間)

TLE

経年Source: Space-Track

元期: Sep 9, 2026, 17:17 UTC

1 26506U 81021H   26252.72014417  .00000141  00000-0  17603-3 0  9990
2 26506  64.9565  60.3332 0061789 240.0740 119.4179 13.92949970671718

AllMySatでCOSMOS 1249 COOLANTをリアルタイム追跡

Download on the App Store